{"data":{"norad_id":56226,"intl_designator":"2023-084BK","name":"OUTPOST MISSION 1","alt_names":[],"object_type":"PAYLOAD","status":"ACTIVE","operator":null,"country":"US","launch_date":"2023-06-12","launch_site_code":"AFWTR","launch_vehicle":null,"mission":null,"orbit_class":"UNKNOWN","rcs_meters":null,"size_class":null,"mass_kg":null,"dimensions":null,"purposes":[],"wikipedia_slug":null,"has_3d_model":false,"image_url":null,"decayed_at":null,"tle_current":{"epoch":"2026-05-24T22:47:44.595744Z","epoch_age_seconds":82691,"freshness":"FRESH","line1":"1 56226U 23084BK  26144.94982171  .00200296  16746-4  67837-3 0  9997","line2":"2 56226  97.6008 305.8151 0004193 260.5481  99.5318 15.89914763165313","mean_motion":15.89914763,"eccentricity":0.0004193,"inclination_deg":97.6008,"raan_deg":305.8151,"arg_perigee_deg":260.5481,"mean_anomaly_deg":99.5318,"bstar":0.00067837,"rev_number":16531,"period_min":90.570893076235,"perigee_km":299.72042038028,"apogee_km":305.32282069946,"semimajor_km":6680.6586205399,"source":"CELESTRAK","updated_at":"2026-05-25T13:37:59.401846Z"}}}